This demonstration page uses our WeatherBlox Daily Observations layout. Learn more.

Hourly Observations for March 22, 2019

Temp ( °F °C ) Dew Point ( °F °C ) Humidity (%) Winds ( mph kmh ) Pressure ( in mb ) Visibility ( mi km ) Precip ( " mm )
12:15 am 00:15 Clear 44 6.5 34 1 68 68 S 9 15 30.18 1022 10 16.0934 0 0
12:35 am 00:35 Clear 43 6.1 33 0.8 69 69 S 5 7 30.2 1023 10 16.0934 0 0
12:55 am 00:55 Clear 41 5.1 33 0.6 73 73 S 6 9 30.21 1023 10 16.0934 0 0
1:15 am 01:15 Clear 41 5 33 0.6 73 73 S 7 11 30.2 1023 10 16.0934 0 0
1:35 am 01:35 Clear 40 4.5 33 0.3 74 74 S 5 7 30.21 1023 10 16.0934 0 0
1:55 am 01:55 Clear 41 5 33 0.3 72 72 S 6 9 30.21 1023 10 16.0934 0 0
2:15 am 02:15 Clear 40 4.7 32 0 72 72 S 7 11 30.2 1023 10 16.0934 0 0
2:35 am 02:35 Clear 41 5.1 32 0 70 70 S 6 9 30.21 1023 10 16.0934 0 0
2:55 am 02:55 Clear 41 5.1 32 0 70 70 S 6 9 30.21 1023 10 16.0934 0 0
3:15 am 03:15 Clear 40 4.3 32 0 74 74 SSW 6 9 30.21 1023 10 16.0934 0 0
3:35 am 03:35 Clear 40 4.2 32 -0.1 74 74 S 3 6 30.22 1023 10 16.0934 0 0
3:55 am 03:55 Clear 37 2.8 31 -0.4 80 80 SE 5 7 30.22 1023 10 16.0934 0 0
4:15 am 04:15 Clear 36 2 32 -0.2 86 86 SE 5 7 30.23 1024 10 16.0934 0 0
4:35 am 04:35 Clear 37 2.8 32 -0.2 81 81 SSE 6 9 30.22 1023 10 16.0934 0 0
4:55 am 04:55 Clear 37 2.8 31 -0.5 79 79 S 6 9 30.21 1023 10 16.0934 0 0
5:15 am 05:15 Clear 38 3.2 31 -0.4 78 78 SSW 8 13 30.2 1023 10 16.0934 0 0
5:35 am 05:35 Clear 39 3.7 32 -0.1 76 76 S 5 7 30.19 1022 10 16.0934 0 0
5:55 am 05:55 Clear 36 2.2 31 -0.8 81 81 SSE 3 6 30.21 1023 10 16.0934 0 0
6:15 am 06:15 Clear 38 3.2 31 -0.5 77 77 S 5 7 30.2 1023 10 16.0934 0 0
6:35 am 06:35 Clear 38 3.5 31 -0.5 75 75 SSW 7 11 30.2 1023 10 16.0934 0 0
6:55 am 06:55 Clear 38 3.5 31 -0.4 76 76 S 6 9 30.2 1023 10 16.0934 0 0
7:15 am 07:15 Clear 34 1.3 30 -1.2 84 84 SE 5 7 30.22 1023 10 16.0934 0 0
7:35 am 07:35 Clear 36 2.4 30 -0.9 79 79 SE 3 6 30.21 1023 10 16.0934 0 0
7:55 am 07:55 Sunny 34 1.1 31 -0.7 88 88 SE 5 7 30.22 1024 10 16.0934 0 0
8:15 am 08:15 Sunny 35 1.9 31 -0.5 84 84 SE 5 7 30.23 1024 10 16.0934 0 0
8:35 am 08:35 Sunny 36 2.2 32 0.2 87 87 ENE 7 11 30.22 1024 10 16.0934 0 0
8:55 am 08:55 Sunny 37 3 34 1 87 87 ENE 7 11 30.23 1024 10 16.0934 0 0
9:15 am 09:15 Sunny 40 4.5 34 1.2 79 79 ENE 3 6 30.21 1023 10 16.0934 0 0
9:35 am 09:35 Sunny 41 5 35 1.5 78 78 E 3 6 30.22 1023 10 16.0934 0 0
9:55 am 09:55 Partly Cloudy 42 5.7 35 1.7 76 76 E 6 9 30.21 1023 10 16.0934 0 0
10:15 am 10:15 Partly Cloudy 45 7.1 37 2.5 73 73 E 8 13 30.2 1023 10 16.0934 0 0
10:35 am 10:35 Mostly Cloudy 46 7.9 37 2.7 70 70 ESE 7 11 30.19 1022 10 16.0934 0 0
10:55 am 10:55 Mostly Cloudy 48 9.1 38 3.3 67 67 ESE 9 15 30.18 1022 10 16.0934 0 0
11:15 am 11:15 Mostly Cloudy 51 10.4 39 4 65 65 E 9 15 30.17 1022 10 16.0934 0 0
11:35 am 11:35 Mostly Cloudy 51 10.7 39 3.9 63 63 ESE 9 15 30.17 1022 10 16.0934 0 0
11:55 am 11:55 Partly Cloudy 54 12.4 40 4.3 58 58 ESE 10 17 30.15 1021 10 16.0934 0 0
12:15 pm 12:15 Sunny 55 12.9 40 4.3 56 56 ESE 12 19 30.14 1021 10 16.0934 0 0
12:35 pm 12:35 Sunny 56 13.4 38 3.3 51 51 SE 16 26 30.12 1020 10 16.0934 0 0
12:55 pm 12:55 Partly Cloudy 58 14.5 37 3 46 46 SE 16 26 30.1 1019 10 16.0934 0 0
1:15 pm 13:15 Partly Cloudy 58 14.6 37 2.7 45 45 SE 15 24 30.09 1019 10 16.0934 0 0
1:35 pm 13:35 Sunny 58 14.5 36 2.1 43 43 SE 16 26 30.09 1019 10 16.0934 0 0
1:55 pm 13:55 Sunny 58 14.5 36 2.2 44 44 SE 18 30 30.09 1019 10 16.0934 0 0
2:15 pm 14:15 Partly Cloudy 58 14.5 36 2.2 44 44 SE 17 28 30.09 1019 10 16.0934 0 0
2:35 pm 14:35 Mostly Cloudy 58 14.7 36 2.2 43 43 SE 14 22 30.08 1019 10 16.0934 0 0
2:55 pm 14:55 Mostly Cloudy 58 14.6 36 2.3 44 44 SE 12 19 30.06 1018 10 16.0934 0 0
3:15 pm 15:15 Partly Cloudy 59 15.1 36 2.2 42 42 SE 15 24 30.05 1018 10 16.0934 0 0
3:35 pm 15:35 Partly Cloudy 59 15 35 1.9 41 41 SE 14 22 30.04 1017 10 16.0934 0 0
3:55 pm 15:55 Partly Cloudy 59 14.9 36 2.3 43 43 SE 12 19 30.04 1017 10 16.0934 0 0
4:15 pm 16:15 Mostly Cloudy 60 15.5 36 2 40 40 SE 16 26 30.02 1017 10 16.0934 0 0
4:35 pm 16:35 Partly Cloudy 59 15 35 1.9 41 41 SSE 13 20 30.03 1017 10 16.0934 0 0
4:55 pm 16:55 Partly Cloudy 58 14.7 36 2 43 43 SE 14 22 30.02 1017 10 16.0934 0 0
5:15 pm 17:15 Mostly Cloudy 59 14.9 36 2.1 42 42 SE 13 20 30.01 1016 10 16.0934 0 0
5:35 pm 17:35 Cloudy 59 15 36 2.2 42 42 SE 12 19 30.01 1016 10 16.0934 0 0
5:55 pm 17:55 Cloudy 59 14.8 36 2.1 43 43 ESE 15 24 30 1016 10 16.0934 0 0
6:15 pm 18:15 Cloudy 57 14 37 3 48 48 SE 13 20 30.01 1016 10 16.0934 0 0
6:35 pm 18:35 Mostly Cloudy 57 13.7 38 3.4 50 50 ESE 10 17 30 1016 10 16.0934 0 0
6:55 pm 18:55 Partly Cloudy 55 12.7 39 4.1 56 56 ESE 9 15 30 1016 10 16.0934 0 0
7:15 pm 19:15 Sunny 53 11.5 40 4.7 63 63 E 9 15 30.02 1017 10 16.0934 0 0
7:35 pm 19:35 Mostly Cloudy 52 10.9 41 4.8 66 66 ESE 8 13 30.03 1017 10 16.0934 0 0
7:55 pm 19:55 Cloudy 51 10.4 41 5 69 69 ESE 7 11 30.05 1018 10 16.0934 0 0
8:15 pm 20:15 Cloudy 49 9.7 40 4.6 71 71 SE 6 9 30.07 1018 10 16.0934 0 0
8:35 pm 20:35 Cloudy 49 9.6 40 4.5 71 71 SE 7 11 30.07 1018 10 16.0934 0 0
8:55 pm 20:55 Cloudy 48 9 40 4.5 74 74 ESE 7 11 30.08 1019 10 16.0934 0 0
9:15 pm 21:15 Mostly Cloudy 48 8.8 40 4.2 73 73 SE 6 9 30.08 1019 10 16.0934 0 0
9:35 pm 21:35 Cloudy with Light Drizzle 47 8.5 40 4.3 75 75 SSE 5 7 30.09 1019 10 16.0934 0 0
9:55 pm 21:55 Cloudy with Light Rain 47 8.6 40 4.7 77 77 SSE 3 6 30.09 1019 10 16.0934 0 0
10:15 pm 22:15 Cloudy with Light Rain 46 7.6 41 5.1 84 84 E 7 11 30.08 1019 10 16.0934 0 0
10:35 pm 22:35 Cloudy with Light Drizzle 47 8.2 40 4.7 79 79 ESE 9 15 30.07 1018 10 16.0934 0 0
10:55 pm 22:55 Partly Cloudy 45 7.2 40 4.6 84 84 E 9 15 30.07 1018 10 16.0934 0 0
11:15 pm 23:15 Partly Cloudy 46 7.8 39 4.1 78 78 E 9 15 30.06 1018 10 16.0934 0 0
11:35 pm 23:35 Cloudy 46 7.8 40 4.3 79 79 E 10 17 30.06 1018 10 16.0934 0 0
11:55 pm 23:55 Cloudy 45 7 40 4.5 84 84 ESE 8 13 30.07 1018 10 16.0934 0 0

Powered by AerisWeather